| time (UTC) | temp C | wind direction | speed KPH | gust KPH | rain 1hr cm | rain 24hr cm | rain mn cm | humidity % | barometer mb |
| 20260506003706 | 23 | 113 | 3.2 | 6.4 | 0.00 | 0.03 | 0.03 | 96 | 1007.7 |
| 20260506000047 | 23 | 113 | 1.6 | 6.4 | 0.00 | 0.03 | 0.03 | 96 | 1007.6 |
| 20260505234519 | 23 | 113 | 1.6 | 6.4 | 0.00 | 0.03 | 0.03 | 95 | 1007.5 |
| 20260505233456 | 23 | 113 | 3.2 | 6.4 | 0.00 | 0.03 | 0.03 | 95 | 1007.2 |
| 20260505224825 | 24 | 90 | 3.2 | 3.2 | 0.00 | 0.03 | 0.03 | 93 | 1007.0 |
| 20260505223805 | 24 | 90 | 1.6 | 3.2 | 0.00 | 0.03 | 0.03 | 92 | 1006.8 |
| 20260505221725 | 25 | 90 | 1.6 | 6.4 | 0.00 | 0.03 | 0.03 | 90 | 1006.7 |
| 20260505220154 | 25 | 90 | 3.2 | 3.2 | 0.00 | 0.03 | 0.03 | 89 | 1006.5 |
| 20260505215645 | 25 | 90 | 1.6 | 3.2 | 0.00 | 0.03 | 0.03 | 89 | 1006.6 |
| 20260505215134 | 25 | 90 | 1.6 | 3.2 | 0.00 | 0.03 | 0.03 | 88 | 1006.5 |
| 20260505214542 | 25 | 90 | 1.6 | 3.2 | 0.00 | 0.03 | 0.03 | 88 | 1006.6 |
| 20260505210507 | 26 | 90 | 3.2 | 6.4 | 0.00 | 0.03 | 0.03 | 83 | 1006.6 |
| 20260505204423 | 27 | 68 | 0.0 | 6.4 | 0.00 | 0.03 | 0.03 | 81 | 1006.5 |
| 20260505203403 | 27 | 113 | 3.2 | 6.4 | 0.00 | 0.03 | 0.03 | 80 | 1006.3 |
| 20260505201832 | 27 | 45 | 3.2 | 6.4 | 0.00 | 0.03 | 0.03 | 80 | 1006.7 |
| 20260505194219 | 26 | 68 | 3.2 | 6.4 | 0.00 | 0.03 | 0.03 | 83 | 1006.8 |
| 20260505193201 | 26 | 68 | 1.6 | 3.2 | 0.00 | 0.03 | 0.03 | 84 | 1006.9 |
| 20260505185548 | 26 | 90 | 3.2 | 6.4 | 0.00 | 0.03 | 0.03 | 83 | 1007.1 |
| 20260505180917 | 27 | 45 | 4.8 | 11.3 | 0.00 | 0.03 | 0.03 | 80 | 1006.6 |
| 20260505180407 | 27 | 45 | 4.8 | 12.9 | 0.00 | 0.03 | 0.03 | 81 | 1006.6 |
| 20260505173816 | 26 | 68 | 6.4 | 12.9 | 0.00 | 0.03 | 0.03 | 81 | 1006.9 |
| 20260505170716 | 26 | 68 | 6.4 | 17.7 | 0.00 | 0.03 | 0.03 | 83 | 1007.1 |
| 20260505170107 | 25 | 90 | 6.4 | 17.7 | 0.00 | 0.03 | 0.03 | 84 | 1007.4 |
| 20260505163008 | 24 | 68 | 8.0 | 14.5 | 0.03 | 0.03 | 0.03 | 89 | 1007.9 |
| 20260505161024 | 23 | 68 | 6.4 | 14.5 | 0.03 | 0.03 | 0.03 | 94 | 1008.2 |
| 20260505123828 | 20 | 68 | 6.4 | 14.5 | 0.00 | 0.00 | 0.00 | 96 | 1009.1 |
| 20260505121239 | 19 | 90 | 4.8 | 12.9 | 0.00 | 0.00 | 0.00 | 98 | 1009.1 |
| 20260505120727 | 19 | 68 | 6.4 | 14.5 | 0.00 | 0.00 | 0.00 | 99 | 1008.8 |
| 20260505120218 | 19 | 68 | 3.2 | 14.5 | 0.00 | 0.00 | 0.00 | 99 | 1008.9 |
| 20260505101854 | 18 | 135 | 4.8 | 9.7 | 0.00 | 0.00 | 0.00 | 99 | 1008.5 |
| 20260505100337 | 18 | 135 | 4.8 | 11.3 | 0.00 | 0.00 | 0.00 | 99 | 1008.1 |
| 20260505094800 | 18 | 135 | 3.2 | 11.3 | 0.00 | 0.00 | 0.00 | 99 | 1008.1 |
| 20260505094243 | 18 | 135 | 4.8 | 11.3 | 0.00 | 0.00 | 0.00 | 99 | 1008.0 |
| 20260505092714 | 18 | 135 | 3.2 | 11.3 | 0.00 | 0.00 | 0.00 | 99 | 1007.8 |
| 20260505084551 | 18 | 135 | 6.4 | 9.7 | 0.00 | 0.00 | 0.00 | 99 | 1007.8 |
| 20260505083532 | 18 | 135 | 4.8 | 9.7 | 0.00 | 0.00 | 0.00 | 99 | 1008.0 |
| 20260505075919 | 18 | 135 | 4.8 | 11.3 | 0.00 | 0.00 | 0.00 | 99 | 1007.9 |
| 20260505075409 | 18 | 135 | 4.8 | 6.4 | 0.00 | 0.00 | 0.00 | 99 | 1007.8 |
| 20260505073840 | 18 | 135 | 4.8 | 11.3 | 0.00 | 0.00 | 0.00 | 99 | 1007.8 |
| 20260505063638 | 18 | 135 | 3.2 | 6.4 | 0.00 | 0.00 | 0.00 | 99 | 1008.2 |
| 20260505061557 | 18 | 135 | 3.2 | 9.7 | 0.00 | 0.00 | 0.00 | 98 | 1008.3 |
| 20260505061048 | 18 | 135 | 4.8 | 6.4 | 0.00 | 0.00 | 0.00 | 98 | 1008.4 |
| 20260505052727 | 18 | 113 | 3.2 | 6.4 | 0.00 | 0.00 | 0.00 | 98 | 1008.5 |
| 20260505050646 | 19 | 113 | 6.4 | 6.4 | 0.00 | 0.00 | 0.00 | 97 | 1008.3 |
| 20260505050138 | 19 | 113 | 4.8 | 9.7 | 0.00 | 0.00 | 0.00 | 97 | 1008.2 |
| 20260505015532 | 19 | 68 | 4.8 | 12.9 | 0.00 | 0.00 | 0.00 | 94 | 1008.0 |